Flag for Ecuador Weather past 2 weeks in Guayaquil, Ecuador

Now
70 °F

Passing clouds.


Feels Like: 70 °F
Forecast: 69 / 85 °F
Wind: 14 mph from Southwest

Location: Guayaquil / Simon Bolivar

Current Time: Sep 3, 2014 at 12:19:28 AM

Latest Report: Sep 3, 2014 at 12:00 AM


Visibility: N/A

Pressure: 29.92 "Hg

Humidity: 78%

Dew point: 63 °F

Location of GuayaquilLocation

Historic Weather in Guayaquil — Graph

°F

Guayaquil temperature yesterday

Maximum temperature yesterday: 82 °F (at 4:00 PM)
Minimum temperature yesterday: 68 °F (at 2:00 AM)
Average temperature yesterday: 74 °F

Past Weeks' High & Low Weather Summary

 TemperatureHumidityPressure
High88 °F (Aug 26, 3:00 PM)88% (Aug 19, 1:00 AM)29.95 "Hg (Aug 19, 1:00 AM)
Low68 °F (Aug 27, 5:00 AM)52% (Aug 27, 4:00 PM)29.74 "Hg (Aug 25, 3:00 PM)
Average76 °F74%29.86 "Hg
* Reported Aug 18 11:00 PM — Sep 2 11:00 PM, Guayaquil, Weather by CustomWeather, © 2014

Note: Actual official high and low records may vary slightly from our data, if they occured in-between our weather recording intervals... More about our weather records

Advertising

Guayaquil weather history for previous 24 hours

 ConditionsComfort  
Time TempWeatherWind HumidityBarometerVisibility
11:00 PM
Sep 2
70 °FPassing clouds.12 mph78%29.92 "HgN/A
10:00 PM72 °FPassing clouds.13 mph73%29.89 "HgN/A
9:00 PM73 °FPassing clouds.10 mph78%29.89 "HgN/A
8:00 PM75 °FPassing clouds.7 mph74%29.86 "HgN/A
7:00 PM77 °FPassing clouds.7 mph69%29.83 "HgN/A
6:00 PM79 °FPassing clouds.7 mph65%29.80 "HgN/A
5:00 PM81 °FPassing clouds.9 mph62%29.80 "HgN/A
4:00 PM82 °FPartly sunny.8 mph58%29.80 "HgN/A
3:00 PM81 °FBroken clouds.6 mph62%29.83 "HgN/A
2:00 PM81 °FBroken clouds.8 mph62%29.86 "HgN/A
1:00 PM79 °FBroken clouds.8 mph65%29.89 "HgN/A
12:00 PM77 °FBroken clouds.5 mph74%29.92 "HgN/A
11:00 AM77 °FPartly sunny.6 mph65%29.92 "HgN/A
10:00 AM75 °FPartly sunny.6 mph69%29.95 "HgN/A
9:00 AM73 °FPartly sunny.8 mph74%29.95 "HgN/A
8:00 AM72 °FPartly sunny.7 mph73%29.92 "HgN/A
7:00 AM70 °FPartly sunny.3 mph78%29.89 "HgN/A
6:00 AM70 °FPassing clouds.6 mph78%29.89 "HgN/A
5:00 AM70 °FPassing clouds.7 mph78%29.89 "HgN/A
4:00 AM70 °FPartly cloudy.8 mph78%29.86 "HgN/A
3:00 AM70 °FPassing clouds.12 mph78%29.86 "HgN/A
2:00 AM68 °FClear.10 mph83%29.89 "Hg10 mi
1:00 AM70 °FClear.10 mph78%29.89 "Hg10 mi
12:00 AM70 °FClear.14 mph78%29.89 "Hg10 mi
Weather by CustomWeather, © 2014

See weather overviewHow to use our weather pages